Find Starlink 5122

NORAD ID: 54179 Int'l Des: 2022-141 Owner: SPXS Country: US Constellation: starlink operational
LEOCIRCULAR

当前视图

正在加载3D地球...

About Starlink 5122

Starlink 5122 (NORAD 54179) is a starlink constellation satellite (v1.5) launched Oct 28, 2022 by SPXS of US. It operates in LEO, CIRCULAR orbit with a mass of 305.00 kg.

关于 Starlink 5122

正在加载描述...

即将过境

Passes for default location (London). Set your location on the main map for personalized predictions.

高度历史

Loading altitude history...

两行轨道根数

1 54179U 22141Y 26195.15575363 -.00001347 00000-0 -27719-4 0 9991
2 54179 53.1629 153.0575 0001142 81.8200 278.2933 15.35408081204990
Epoch: Jul 14, 2026 • Age: 10 hours

当前状态

高度 464.7 km
远地点 / 近地点 N/A
速度 7.64 km/s
星下点 49.88°N, 79.48°E
发射日期 Oct 28, 2022
运行时间 3.7 years
类型 internet

技术详情

分类 Payload
质量 305.00 kg
干质量 290.00 kg
总质量 305.00 kg
长度 0.20 m
直径 2.80 m
跨度 9.00 m
形状 Box + pan
制造商 SPXS
平台类型 Starlink
阶段状态 In Orbit
所有者/国家 SPXS/US

Most Searched